Time,TemperatureF,DewpointF,PressureIn,WindDirection,WindDirectionDegrees,WindSpeedMPH,WindSpeedGustMPH,Humidity,HourlyPrecipIn,Conditions,Clouds,dailyrainin,SoftwareType,DateUTC
2015-04-25 00:03:00,54.4,48.1,29.89,SSW,207,0.0,0.0,79,0.00,,,0.00,WUHU216DAVISVP2,2015-04-25 04:03:00,
2015-04-25 00:08:00,54.3,48.6,29.89,SSW,207,0.0,0.0,81,0.00,,,0.00,WUHU216DAVISVP2,2015-04-25 04:08:00,
2015-04-25 00:13:00,54.2,48.8,29.89,SSW,207,0.0,0.0,82,0.00,,,0.00,WUHU216DAVISVP2,2015-04-25 04:13:00,
2015-04-25 00:18:00,54.0,48.6,29.89,SSW,207,0.0,0.0,82,0.00,,,0.00,WUHU216DAVISVP2,2015-04-25 04:18:00,
2015-04-25 00:23:00,53.9,48.9,29.88,SSW,207,0.0,0.0,83,0.00,,,0.00,WUHU216DAVISVP2,2015-04-25 04:23:00,
2015-04-25 00:28:00,53.8,49.1,29.88,SSW,207,0.0,0.0,84,0.00,,,0.00,WUHU216DAVISVP2,2015-04-25 04:28:00,
2015-04-25 00:33:00,53.8,49.4,29.88,SSW,207,0.0,0.0,85,0.00,,,0.00,WUHU216DAVISVP2,2015-04-25 04:33:00,
2015-04-25 00:38:00,53.8,49.1,29.88,SSW,207,0.0,0.0,84,0.00,,,0.00,WUHU216DAVISVP2,2015-04-25 04:38:00,
2015-04-25 00:43:00,53.8,49.4,29.88,SSW,207,0.0,0.0,85,0.00,,,0.00,WUHU216DAVISVP2,2015-04-25 04:43:00,
2015-04-25 00:48:00,53.8,49.4,29.89,SSW,207,0.0,0.0,85,0.00,,,0.00,WUHU216DAVISVP2,2015-04-25 04:48:00,
2015-04-25 00:53:00,53.7,49.3,29.89,SSW,207,0.0,0.0,85,0.00,,,0.00,WUHU216DAVISVP2,2015-04-25 04:53:00,
2015-04-25 00:58:00,53.7,49.6,29.89,SSW,207,0.0,0.0,86,0.00,,,0.00,WUHU216DAVISVP2,2015-04-25 04:58:00,
2015-04-25 01:03:00,53.8,49.7,29.89,SSW,207,0.0,0.0,86,0.00,,,0.00,WUHU216DAVISVP2,2015-04-25 05:03:00,
2015-04-25 01:08:00,53.8,50.0,29.89,SSW,207,0.0,0.0,87,0.00,,,0.00,WUHU216DAVISVP2,2015-04-25 05:08:00,
2015-04-25 01:13:00,53.8,50.3,29.90,SSW,207,0.0,0.0,88,0.00,,,0.00,WUHU216DAVISVP2,2015-04-25 05:13:00,
2015-04-25 01:18:00,53.7,50.2,29.90,SSW,207,0.0,0.0,88,0.00,,,0.00,WUHU216DAVISVP2,2015-04-25 05:18:00,
2015-04-25 01:23:00,53.6,50.1,29.90,SSW,207,0.0,0.0,88,0.00,,,0.00,WUHU216DAVISVP2,2015-04-25 05:23:00,
2015-04-25 01:28:00,53.5,50.3,29.90,SSW,207,0.0,0.0,89,0.00,,,0.00,WUHU216DAVISVP2,2015-04-25 05:28:00,
2015-04-25 01:33:00,53.5,50.6,29.90,SSW,207,0.0,0.0,90,0.00,,,0.00,WUHU216DAVISVP2,2015-04-25 05:33:00,
2015-04-25 01:38:00,53.5,50.6,29.90,SSW,207,0.0,0.0,90,0.00,,,0.00,WUHU216DAVISVP2,2015-04-25 05:38:00,
2015-04-25 01:43:00,53.5,50.6,29.90,SSW,207,0.0,0.0,90,0.00,,,0.00,WUHU216DAVISVP2,2015-04-25 05:43:00,
2015-04-25 01:48:00,53.4,50.8,29.90,SSW,207,0.0,1.2,91,0.01,,,0.01,WUHU216DAVISVP2,2015-04-25 05:48:00,
2015-04-25 01:53:00,53.2,50.6,29.89,SSW,207,0.0,1.2,91,0.01,,,0.01,WUHU216DAVISVP2,2015-04-25 05:53:00,
2015-04-25 01:58:00,53.2,50.6,29.89,SSW,207,0.0,1.0,91,0.01,,,0.01,WUHU216DAVISVP2,2015-04-25 05:58:00,
2015-04-25 02:03:00,53.1,50.5,29.89,SSW,207,0.0,1.0,91,0.01,,,0.01,WUHU216DAVISVP2,2015-04-25 06:03:00,
2015-04-25 02:08:00,53.1,50.8,29.88,SSW,207,0.0,0.0,92,0.01,,,0.01,WUHU216DAVISVP2,2015-04-25 06:08:00,
2015-04-25 02:13:00,53.0,50.7,29.88,SSW,207,0.0,0.0,92,0.01,,,0.01,WUHU216DAVISVP2,2015-04-25 06:13:00,
2015-04-25 02:18:00,53.0,50.7,29.88,SSW,207,0.0,0.0,92,0.02,,,0.02,WUHU216DAVISVP2,2015-04-25 06:18:00,
2015-04-25 02:23:00,53.0,50.7,29.87,SSW,207,0.0,0.0,92,0.02,,,0.02,WUHU216DAVISVP2,2015-04-25 06:23:00,
2015-04-25 02:28:00,52.9,50.6,29.87,SSW,207,0.0,0.0,92,0.02,,,0.02,WUHU216DAVISVP2,2015-04-25 06:28:00,
2015-04-25 02:33:00,52.8,50.5,29.87,SSW,207,0.0,0.0,92,0.02,,,0.02,WUHU216DAVISVP2,2015-04-25 06:33:00,
2015-04-25 02:38:00,52.8,50.8,29.86,SSW,207,0.0,0.0,93,0.02,,,0.02,WUHU216DAVISVP2,2015-04-25 06:38:00,
2015-04-25 02:43:00,52.7,50.7,29.86,SSW,207,0.0,0.0,93,0.01,,,0.02,WUHU216DAVISVP2,2015-04-25 06:43:00,
2015-04-25 02:48:00,52.6,50.6,29.86,SSW,207,0.0,0.0,93,0.01,,,0.02,WUHU216DAVISVP2,2015-04-25 06:48:00,
2015-04-25 02:53:00,52.6,50.6,29.85,SSW,207,0.0,0.0,93,0.01,,,0.02,WUHU216DAVISVP2,2015-04-25 06:53:00,
2015-04-25 02:58:00,52.6,50.6,29.86,SSW,207,0.0,0.0,93,0.01,,,0.02,WUHU216DAVISVP2,2015-04-25 06:58:00,
2015-04-25 03:03:00,52.5,50.5,29.85,SSW,207,0.0,0.0,93,0.01,,,0.02,WUHU216DAVISVP2,2015-04-25 07:03:00,
2015-04-25 03:08:00,52.4,50.4,29.85,SSW,207,0.0,0.0,93,0.01,,,0.02,WUHU216DAVISVP2,2015-04-25 07:08:00,
2015-04-25 03:13:00,52.4,50.4,29.85,SSW,207,0.0,1.2,93,0.01,,,0.02,WUHU216DAVISVP2,2015-04-25 07:13:00,
2015-04-25 03:18:00,52.3,50.3,29.85,SSW,207,0.0,1.2,93,0.00,,,0.02,WUHU216DAVISVP2,2015-04-25 07:18:00,
2015-04-25 03:23:00,52.3,50.3,29.85,SSW,207,0.0,1.0,93,0.00,,,0.02,WUHU216DAVISVP2,2015-04-25 07:23:00,
2015-04-25 03:28:00,52.3,50.3,29.85,SSW,207,0.0,1.0,93,0.00,,,0.02,WUHU216DAVISVP2,2015-04-25 07:28:00,
2015-04-25 03:33:00,52.4,50.4,29.85,SSW,207,0.0,0.0,93,0.00,,,0.02,WUHU216DAVISVP2,2015-04-25 07:33:00,
2015-04-25 03:38:00,52.5,50.5,29.85,SSW,207,0.0,0.0,93,0.00,,,0.02,WUHU216DAVISVP2,2015-04-25 07:38:00,
2015-04-25 03:43:00,52.5,50.5,29.85,SSW,207,0.0,0.0,93,0.00,,,0.02,WUHU216DAVISVP2,2015-04-25 07:43:00,
2015-04-25 03:48:00,52.5,50.8,29.85,SSW,207,0.0,0.0,94,0.00,,,0.02,WUHU216DAVISVP2,2015-04-25 07:48:00,
2015-04-25 03:53:00,52.4,50.4,29.85,SSW,207,0.0,0.0,93,0.00,,,0.02,WUHU216DAVISVP2,2015-04-25 07:53:00,
2015-04-25 03:58:00,52.5,50.8,29.85,SSW,207,0.0,0.0,94,0.00,,,0.02,WUHU216DAVISVP2,2015-04-25 07:58:00,
2015-04-25 04:03:00,52.5,50.8,29.85,SSW,207,0.0,0.0,94,0.00,,,0.02,WUHU216DAVISVP2,2015-04-25 08:03:00,
2015-04-25 04:08:00,52.5,50.8,29.85,SSW,207,0.0,0.0,94,0.00,,,0.02,WUHU216DAVISVP2,2015-04-25 08:08:00,
2015-04-25 04:13:00,52.5,50.8,29.84,SSW,207,0.0,2.4,94,0.01,,,0.03,WUHU216DAVISVP2,2015-04-25 08:13:00,
2015-04-25 04:18:00,52.5,50.8,29.84,SSW,207,0.0,2.4,94,0.02,,,0.04,WUHU216DAVISVP2,2015-04-25 08:18:00,
2015-04-25 04:23:00,52.5,50.8,29.84,SSW,207,0.0,2.0,94,0.02,,,0.04,WUHU216DAVISVP2,2015-04-25 08:23:00,
2015-04-25 04:28:00,52.5,50.8,29.84,SSW,207,0.0,2.0,94,0.02,,,0.04,WUHU216DAVISVP2,2015-04-25 08:28:00,
2015-04-25 04:33:00,52.6,50.9,29.84,SSW,207,0.0,0.0,94,0.03,,,0.05,WUHU216DAVISVP2,2015-04-25 08:33:00,
2015-04-25 04:38:00,52.6,51.2,29.84,SSW,207,0.0,1.2,95,0.03,,,0.05,WUHU216DAVISVP2,2015-04-25 08:38:00,
2015-04-25 04:43:00,52.6,51.2,29.84,SSW,207,2.4,4.8,95,0.04,,,0.06,WUHU216DAVISVP2,2015-04-25 08:43:00,
2015-04-25 04:48:00,52.5,50.8,29.84,SSW,207,0.0,4.8,94,0.04,,,0.06,WUHU216DAVISVP2,2015-04-25 08:48:00,
2015-04-25 04:53:00,52.3,50.6,29.84,SSW,207,0.0,4.0,94,0.04,,,0.06,WUHU216DAVISVP2,2015-04-25 08:53:00,
2015-04-25 04:58:00,52.1,50.4,29.84,SSW,207,1.2,4.0,94,0.05,,,0.07,WUHU216DAVISVP2,2015-04-25 08:58:00,
2015-04-25 05:03:00,51.8,50.1,29.83,SSW,207,0.0,2.4,94,0.06,,,0.08,WUHU216DAVISVP2,2015-04-25 09:03:00,
2015-04-25 05:08:00,51.7,50.0,29.82,SSW,207,0.0,2.4,94,0.05,,,0.08,WUHU216DAVISVP2,2015-04-25 09:08:00,
2015-04-25 05:13:00,51.5,49.8,29.81,SSW,207,0.0,2.0,94,0.06,,,0.10,WUHU216DAVISVP2,2015-04-25 09:13:00,
2015-04-25 05:18:00,51.4,49.4,29.79,SSW,207,0.0,3.6,93,0.06,,,0.11,WUHU216DAVISVP2,2015-04-25 09:18:00,
2015-04-25 05:23:00,51.4,49.7,29.80,SSW,207,1.2,4.8,94,0.06,,,0.11,WUHU216DAVISVP2,2015-04-25 09:23:00,
2015-04-25 05:28:00,51.5,49.8,29.82,SSW,207,0.0,4.8,94,0.06,,,0.11,WUHU216DAVISVP2,2015-04-25 09:28:00,
2015-04-25 05:33:00,51.6,49.9,29.81,SSW,207,0.0,4.0,94,0.06,,,0.12,WUHU216DAVISVP2,2015-04-25 09:33:00,
2015-04-25 05:38:00,51.6,50.2,29.81,SSW,207,0.0,4.0,95,0.06,,,0.12,WUHU216DAVISVP2,2015-04-25 09:38:00,
2015-04-25 05:43:00,51.7,50.3,29.81,SSW,207,0.0,3.6,95,0.05,,,0.12,WUHU216DAVISVP2,2015-04-25 09:43:00,
2015-04-25 05:48:00,51.7,50.3,29.80,SSW,207,0.0,3.0,95,0.05,,,0.12,WUHU216DAVISVP2,2015-04-25 09:48:00,
2015-04-25 05:53:00,51.8,50.4,29.81,SSW,207,0.0,3.0,95,0.05,,,0.12,WUHU216DAVISVP2,2015-04-25 09:53:00,
2015-04-25 05:58:00,51.8,50.4,29.82,SSW,207,0.0,1.2,95,0.04,,,0.12,WUHU216DAVISVP2,2015-04-25 09:58:00,
2015-04-25 06:03:00,51.8,50.4,29.82,SSW,207,0.0,1.0,95,0.03,,,0.12,WUHU216DAVISVP2,2015-04-25 10:03:00,
2015-04-25 06:08:00,51.9,50.5,29.82,SSW,207,0.0,1.0,95,0.03,,,0.12,WUHU216DAVISVP2,2015-04-25 10:08:00,
2015-04-25 06:13:00,51.9,50.5,29.82,SSW,207,0.0,0.0,95,0.02,,,0.12,WUHU216DAVISVP2,2015-04-25 10:13:00,
2015-04-25 06:18:00,51.9,50.5,29.82,SSW,207,0.0,0.0,95,0.01,,,0.12,WUHU216DAVISVP2,2015-04-25 10:18:00,
2015-04-25 06:23:00,51.9,50.5,29.82,SSW,207,0.0,0.0,95,0.01,,,0.12,WUHU216DAVISVP2,2015-04-25 10:23:00,
2015-04-25 06:28:00,52.0,50.6,29.83,SSW,207,0.0,0.0,95,0.01,,,0.12,WUHU216DAVISVP2,2015-04-25 10:28:00,
2015-04-25 06:33:00,52.1,50.7,29.83,SSW,207,0.0,2.4,95,0.00,,,0.12,WUHU216DAVISVP2,2015-04-25 10:33:00,
2015-04-25 06:38:00,52.2,50.8,29.83,SSW,207,0.0,2.4,95,0.00,,,0.12,WUHU216DAVISVP2,2015-04-25 10:38:00,
2015-04-25 06:43:00,52.2,50.8,29.82,SSW,207,0.0,2.0,95,0.00,,,0.12,WUHU216DAVISVP2,2015-04-25 10:43:00,
2015-04-25 06:48:00,52.3,51.2,29.82,SSW,207,0.0,3.6,96,0.00,,,0.12,WUHU216DAVISVP2,2015-04-25 10:48:00,
2015-04-25 06:53:00,52.4,51.3,29.81,SSW,207,0.0,3.6,96,0.01,,,0.13,WUHU216DAVISVP2,2015-04-25 10:53:00,
2015-04-25 06:58:00,52.4,51.0,29.81,SSW,207,0.0,3.0,95,0.01,,,0.13,WUHU216DAVISVP2,2015-04-25 10:58:00,
2015-04-25 07:03:00,52.3,50.9,29.81,SSW,207,0.0,3.6,95,0.01,,,0.13,WUHU216DAVISVP2,2015-04-25 11:03:00,
2015-04-25 07:08:00,52.4,51.3,29.80,SSW,207,0.0,3.6,96,0.01,,,0.13,WUHU216DAVISVP2,2015-04-25 11:08:00,
2015-04-25 07:13:00,52.3,50.9,29.80,SSW,207,0.0,3.0,95,0.01,,,0.13,WUHU216DAVISVP2,2015-04-25 11:13:00,
2015-04-25 07:18:00,52.4,51.0,29.79,SSW,207,0.0,3.0,95,0.01,,,0.13,WUHU216DAVISVP2,2015-04-25 11:18:00,
2015-04-25 07:23:00,52.4,51.3,29.79,SSW,207,0.0,1.2,96,0.01,,,0.13,WUHU216DAVISVP2,2015-04-25 11:23:00,
2015-04-25 07:28:00,52.4,51.3,29.79,SSW,207,0.0,1.2,96,0.01,,,0.13,WUHU216DAVISVP2,2015-04-25 11:28:00,
2015-04-25 07:33:00,52.5,51.4,29.79,SSW,207,0.0,1.2,96,0.01,,,0.13,WUHU216DAVISVP2,2015-04-25 11:33:00,
2015-04-25 07:38:00,52.6,51.5,29.79,SSW,207,0.0,1.2,96,0.01,,,0.13,WUHU216DAVISVP2,2015-04-25 11:38:00,
2015-04-25 07:43:00,52.6,51.5,29.79,SSW,207,0.0,1.2,96,0.01,,,0.13,WUHU216DAVISVP2,2015-04-25 11:43:00,
2015-04-25 07:48:00,52.7,51.6,29.78,SSW,207,0.0,2.4,96,0.01,,,0.13,WUHU216DAVISVP2,2015-04-25 11:48:00,
2015-04-25 07:53:00,52.8,51.7,29.75,SSW,207,1.2,3.6,96,0.00,,,0.13,WUHU216DAVISVP2,2015-04-25 11:53:00,
2015-04-25 07:58:00,52.9,51.8,29.74,NE,43,0.0,4.8,96,0.00,,,0.13,WUHU216DAVISVP2,2015-04-25 11:58:00,
2015-04-25 08:03:00,53.0,51.9,29.75,NE,43,0.0,4.8,96,0.00,,,0.13,WUHU216DAVISVP2,2015-04-25 12:03:00,
2015-04-25 08:08:00,53.2,52.1,29.74,NNE,13,2.4,6.0,96,0.00,,,0.13,WUHU216DAVISVP2,2015-04-25 12:08:00,
2015-04-25 08:13:00,53.2,52.1,29.74,NE,49,0.0,6.0,96,0.00,,,0.13,WUHU216DAVISVP2,2015-04-25 12:13:00,
2015-04-25 08:18:00,53.2,52.1,29.72,NE,49,0.0,5.0,96,0.00,,,0.13,WUHU216DAVISVP2,2015-04-25 12:18:00,
2015-04-25 08:23:00,53.1,52.0,29.72,NE,49,0.0,5.0,96,0.00,,,0.13,WUHU216DAVISVP2,2015-04-25 12:23:00,
2015-04-25 08:28:00,53.1,52.0,29.72,NE,49,0.0,2.0,96,0.00,,,0.13,WUHU216DAVISVP2,2015-04-25 12:28:00,
2015-04-25 08:33:00,53.1,52.0,29.73,NE,49,0.0,1.2,96,0.00,,,0.13,WUHU216DAVISVP2,2015-04-25 12:33:00,
2015-04-25 08:38:00,53.2,52.1,29.73,NE,49,0.0,1.0,96,0.00,,,0.13,WUHU216DAVISVP2,2015-04-25 12:38:00,
2015-04-25 08:43:00,53.3,52.2,29.74,NE,49,0.0,0.0,96,0.00,,,0.13,WUHU216DAVISVP2,2015-04-25 12:43:00,
2015-04-25 08:48:00,53.5,52.4,29.74,NE,49,0.0,0.0,96,0.00,,,0.13,WUHU216DAVISVP2,2015-04-25 12:48:00,
2015-04-25 08:53:00,53.6,52.5,29.73,NE,49,0.0,0.0,96,0.00,,,0.13,WUHU216DAVISVP2,2015-04-25 12:53:00,
2015-04-25 08:58:00,53.6,52.5,29.73,NE,49,0.0,0.0,96,0.00,,,0.13,WUHU216DAVISVP2,2015-04-25 12:58:00,
2015-04-25 09:03:00,53.8,52.7,29.72,NE,49,0.0,0.0,96,0.00,,,0.13,WUHU216DAVISVP2,2015-04-25 13:03:00,
2015-04-25 09:08:00,53.9,52.8,29.72,NE,49,0.0,0.0,96,0.00,,,0.13,WUHU216DAVISVP2,2015-04-25 13:08:00,
2015-04-25 09:13:00,54.1,52.9,29.72,NE,49,0.0,0.0,96,0.00,,,0.13,WUHU216DAVISVP2,2015-04-25 13:13:00,
2015-04-25 09:18:00,54.2,53.0,29.73,NE,49,0.0,0.0,96,0.00,,,0.13,WUHU216DAVISVP2,2015-04-25 13:18:00,
2015-04-25 09:23:00,54.3,53.1,29.73,NE,49,0.0,0.0,96,0.00,,,0.13,WUHU216DAVISVP2,2015-04-25 13:23:00,
2015-04-25 09:28:00,54.4,53.2,29.73,NE,49,0.0,1.2,96,0.00,,,0.13,WUHU216DAVISVP2,2015-04-25 13:28:00,
2015-04-25 09:33:00,54.6,53.4,29.73,NE,49,0.0,2.0,96,0.00,,,0.13,WUHU216DAVISVP2,2015-04-25 13:33:00,
2015-04-25 09:38:00,54.6,53.4,29.73,NE,49,0.0,2.0,96,0.00,,,0.13,WUHU216DAVISVP2,2015-04-25 13:38:00,
2015-04-25 09:43:00,54.8,53.6,29.73,NE,49,0.0,2.0,96,0.00,,,0.13,WUHU216DAVISVP2,2015-04-25 13:43:00,
2015-04-25 09:48:00,54.8,53.6,29.73,NE,49,1.2,3.6,96,0.00,,,0.13,WUHU216DAVISVP2,2015-04-25 13:48:00,
2015-04-25 09:53:00,54.9,54.0,29.74,NE,49,1.2,3.6,97,0.00,,,0.13,WUHU216DAVISVP2,2015-04-25 13:53:00,
2015-04-25 09:58:00,55.0,54.1,29.74,NE,49,0.0,3.6,97,0.00,,,0.13,WUHU216DAVISVP2,2015-04-25 13:58:00,
2015-04-25 10:03:00,55.1,54.2,29.74,NE,49,0.0,3.6,97,0.00,,,0.13,WUHU216DAVISVP2,2015-04-25 14:03:00,
2015-04-25 10:08:00,55.1,54.2,29.74,NE,49,0.0,3.6,97,0.00,,,0.13,WUHU216DAVISVP2,2015-04-25 14:08:00,
2015-04-25 10:13:00,55.3,54.1,29.74,NE,51,3.6,3.6,96,0.00,,,0.13,WUHU216DAVISVP2,2015-04-25 14:13:00,
2015-04-25 10:18:00,55.4,54.2,29.73,NE,51,0.0,3.6,96,0.00,,,0.13,WUHU216DAVISVP2,2015-04-25 14:18:00,
2015-04-25 10:23:00,55.4,54.2,29.73,NE,51,0.0,3.6,96,0.00,,,0.13,WUHU216DAVISVP2,2015-04-25 14:23:00,
2015-04-25 10:28:00,55.6,54.7,29.74,NE,51,0.0,3.0,97,0.00,,,0.13,WUHU216DAVISVP2,2015-04-25 14:28:00,
2015-04-25 10:33:00,55.7,54.8,29.74,NE,51,0.0,3.0,97,0.00,,,0.13,WUHU216DAVISVP2,2015-04-25 14:33:00,
2015-04-25 10:38:00,55.9,54.7,29.74,NE,51,0.0,2.4,96,0.00,,,0.13,WUHU216DAVISVP2,2015-04-25 14:38:00,
2015-04-25 10:43:00,56.1,54.9,29.74,NE,51,0.0,2.0,96,0.00,,,0.13,WUHU216DAVISVP2,2015-04-25 14:43:00,
2015-04-25 10:48:00,56.2,55.3,29.75,NE,51,1.2,2.4,97,0.00,,,0.13,WUHU216DAVISVP2,2015-04-25 14:48:00,
2015-04-25 10:53:00,56.3,55.4,29.74,NE,51,2.4,3.6,97,0.00,,,0.13,WUHU216DAVISVP2,2015-04-25 14:53:00,
2015-04-25 10:58:00,56.3,55.4,29.74,NE,51,1.2,6.0,97,0.00,,,0.13,WUHU216DAVISVP2,2015-04-25 14:58:00,
2015-04-25 11:03:00,56.2,55.0,29.73,NE,44,1.2,7.2,96,0.00,,,0.13,WUHU216DAVISVP2,2015-04-25 15:03:00,
2015-04-25 11:08:00,56.2,55.0,29.73,ENE,72,3.6,7.2,96,0.00,,,0.13,WUHU216DAVISVP2,2015-04-25 15:08:00,
2015-04-25 11:13:00,56.3,55.1,29.73,ENE,72,2.4,6.0,96,0.00,,,0.13,WUHU216DAVISVP2,2015-04-25 15:13:00,
2015-04-25 11:18:00,56.4,55.2,29.73,ENE,72,0.0,6.0,96,0.00,,,0.13,WUHU216DAVISVP2,2015-04-25 15:18:00,
2015-04-25 11:23:00,56.5,55.3,29.74,ENE,72,0.0,3.6,96,0.00,,,0.13,WUHU216DAVISVP2,2015-04-25 15:23:00,
2015-04-25 11:28:00,56.6,55.4,29.73,ENE,72,0.0,3.0,96,0.00,,,0.13,WUHU216DAVISVP2,2015-04-25 15:28:00,
2015-04-25 11:33:00,56.7,55.5,29.73,ENE,73,0.0,3.0,96,0.00,,,0.13,WUHU216DAVISVP2,2015-04-25 15:33:00,
2015-04-25 11:38:00,56.8,55.6,29.73,ENE,73,0.0,1.2,96,0.00,,,0.13,WUHU216DAVISVP2,2015-04-25 15:38:00,
2015-04-25 11:43:00,56.9,55.7,29.73,ENE,73,1.2,3.6,96,0.00,,,0.13,WUHU216DAVISVP2,2015-04-25 15:43:00,
2015-04-25 11:48:00,56.9,55.7,29.73,ENE,72,1.2,3.6,96,0.00,,,0.13,WUHU216DAVISVP2,2015-04-25 15:48:00,
2015-04-25 11:53:00,56.9,55.7,29.73,ENE,72,0.0,3.6,96,0.00,,,0.13,WUHU216DAVISVP2,2015-04-25 15:53:00,
2015-04-25 11:58:00,57.0,55.8,29.72,ENE,72,0.0,3.0,96,0.00,,,0.13,WUHU216DAVISVP2,2015-04-25 15:58:00,
2015-04-25 12:03:00,57.0,55.8,29.72,ENE,72,0.0,3.0,96,0.00,,,0.13,WUHU216DAVISVP2,2015-04-25 16:03:00,
2015-04-25 12:08:00,57.0,55.5,29.72,ENE,73,0.0,1.2,95,0.00,,,0.13,WUHU216DAVISVP2,2015-04-25 16:08:00,
2015-04-25 12:13:00,57.2,56.0,29.72,ENE,73,0.0,1.2,96,0.00,,,0.13,WUHU216DAVISVP2,2015-04-25 16:13:00,
2015-04-25 12:18:00,57.4,56.2,29.71,ENE,72,0.0,1.2,96,0.00,,,0.13,WUHU216DAVISVP2,2015-04-25 16:18:00,
2015-04-25 12:23:00,57.2,55.7,29.72,ENE,72,0.0,1.2,95,0.00,,,0.13,WUHU216DAVISVP2,2015-04-25 16:23:00,
2015-04-25 12:28:00,57.6,56.1,29.71,ENE,73,0.0,1.2,95,0.00,,,0.13,WUHU216DAVISVP2,2015-04-25 16:28:00,
2015-04-25 12:33:00,57.9,56.8,29.71,ENE,72,0.0,1.2,96,0.00,,,0.13,WUHU216DAVISVP2,2015-04-25 16:33:00,
2015-04-25 12:38:00,58.0,56.6,29.70,ENE,72,0.0,1.2,95,0.00,,,0.13,WUHU216DAVISVP2,2015-04-25 16:38:00,
2015-04-25 12:43:00,58.5,57.4,29.70,ENE,73,2.4,2.4,96,0.00,,,0.13,WUHU216DAVISVP2,2015-04-25 16:43:00,
2015-04-25 12:48:00,58.7,57.3,29.69,NNE,27,0.0,4.8,95,0.00,,,0.13,WUHU216DAVISVP2,2015-04-25 16:48:00,
2015-04-25 12:53:00,58.9,57.4,29.69,NNE,27,1.2,4.8,95,0.00,,,0.13,WUHU216DAVISVP2,2015-04-25 16:53:00,
2015-04-25 12:58:00,59.0,57.5,29.69,NE,36,2.4,4.8,95,0.00,,,0.13,WUHU216DAVISVP2,2015-04-25 16:58:00,
2015-04-25 13:03:00,59.1,57.6,29.69,NE,36,0.0,4.0,95,0.00,,,0.13,WUHU216DAVISVP2,2015-04-25 17:03:00,
2015-04-25 13:08:00,59.2,57.4,29.68,NE,53,3.6,4.8,94,0.00,,,0.13,WUHU216DAVISVP2,2015-04-25 17:08:00,
2015-04-25 13:13:00,59.3,57.5,29.68,NE,53,0.0,4.8,94,0.00,,,0.13,WUHU216DAVISVP2,2015-04-25 17:13:00,
2015-04-25 13:18:00,59.4,57.6,29.68,NE,53,0.0,6.0,94,0.00,,,0.13,WUHU216DAVISVP2,2015-04-25 17:18:00,
2015-04-25 13:23:00,59.4,57.6,29.68,NE,53,0.0,6.0,94,0.00,,,0.13,WUHU216DAVISVP2,2015-04-25 17:23:00,
2015-04-25 13:28:00,59.5,57.7,29.67,NE,53,0.0,5.0,94,0.00,,,0.13,WUHU216DAVISVP2,2015-04-25 17:28:00,
2015-04-25 13:33:00,59.9,58.1,29.67,NE,53,1.2,5.0,94,0.00,,,0.13,WUHU216DAVISVP2,2015-04-25 17:33:00,
2015-04-25 13:38:00,60.2,58.4,29.67,NE,53,0.0,3.6,94,0.00,,,0.13,WUHU216DAVISVP2,2015-04-25 17:38:00,
2015-04-25 13:43:00,60.3,58.5,29.66,NE,53,0.0,3.0,94,0.00,,,0.13,WUHU216DAVISVP2,2015-04-25 17:43:00,
2015-04-25 13:48:00,60.6,58.8,29.65,NE,53,0.0,3.0,94,0.00,,,0.13,WUHU216DAVISVP2,2015-04-25 17:48:00,
2015-04-25 13:53:00,61.0,59.0,29.65,NE,53,0.0,2.4,93,0.00,,,0.13,WUHU216DAVISVP2,2015-04-25 17:53:00,
2015-04-25 13:58:00,61.7,59.6,29.65,NE,39,1.2,4.0,93,0.00,,,0.13,WUHU216DAVISVP2,2015-04-25 17:58:00,
2015-04-25 14:03:00,62.3,59.9,29.64,NE,47,1.2,4.8,92,0.00,,,0.13,WUHU216DAVISVP2,2015-04-25 18:03:00,
2015-04-25 14:08:00,63.2,60.8,29.64,NE,35,3.6,7.2,92,0.00,,,0.13,WUHU216DAVISVP2,2015-04-25 18:08:00,
2015-04-25 14:13:00,64.3,61.6,29.64,SE,130,2.4,7.2,91,0.00,,,0.13,WUHU216DAVISVP2,2015-04-25 18:13:00,
2015-04-25 14:18:00,65.4,62.1,29.64,South,176,2.4,7.2,89,0.00,,,0.13,WUHU216DAVISVP2,2015-04-25 18:18:00,
2015-04-25 14:23:00,65.9,61.9,29.64,ESE,117,0.0,7.2,87,0.00,,,0.13,WUHU216DAVISVP2,2015-04-25 18:23:00,
2015-04-25 14:28:00,66.6,62.9,29.64,SE,128,0.0,5.0,88,0.00,,,0.13,WUHU216DAVISVP2,2015-04-25 18:28:00,
2015-04-25 14:33:00,67.2,62.9,29.64,SW,223,0.0,6.0,86,0.00,,,0.13,WUHU216DAVISVP2,2015-04-25 18:33:00,
2015-04-25 14:38:00,67.5,62.9,29.64,SW,227,1.2,6.0,85,0.00,,,0.13,WUHU216DAVISVP2,2015-04-25 18:38:00,
2015-04-25 14:43:00,68.4,64.7,29.63,SSW,202,0.0,6.0,88,0.00,,,0.13,WUHU216DAVISVP2,2015-04-25 18:43:00,
2015-04-25 14:48:00,69.2,64.2,29.63,SSW,202,0.0,6.0,84,0.00,,,0.13,WUHU216DAVISVP2,2015-04-25 18:48:00,
2015-04-25 14:53:00,69.8,64.5,29.63,South,190,2.4,7.2,83,0.00,,,0.13,WUHU216DAVISVP2,2015-04-25 18:53:00,
2015-04-25 14:58:00,69.6,63.6,29.62,SSW,205,0.0,7.2,81,0.00,,,0.13,WUHU216DAVISVP2,2015-04-25 18:58:00,
2015-04-25 15:03:00,69.9,63.8,29.61,SSW,207,1.2,7.2,81,0.00,,,0.13,WUHU216DAVISVP2,2015-04-25 19:03:00,
2015-04-25 15:08:00,70.5,64.5,29.61,SSW,206,0.0,6.0,81,0.00,,,0.13,WUHU216DAVISVP2,2015-04-25 19:08:00,
2015-04-25 15:13:00,71.1,66.1,29.61,SSW,206,1.2,3.0,84,0.00,,,0.13,WUHU216DAVISVP2,2015-04-25 19:13:00,
2015-04-25 15:18:00,71.4,65.7,29.61,SSW,206,2.4,2.4,82,0.00,,,0.13,WUHU216DAVISVP2,2015-04-25 19:18:00,
2015-04-25 15:23:00,71.5,65.4,29.61,SSW,207,0.0,2.4,81,0.00,,,0.13,WUHU216DAVISVP2,2015-04-25 19:23:00,
2015-04-25 15:28:00,71.7,65.6,29.60,SSW,206,0.0,3.6,81,0.00,,,0.13,WUHU216DAVISVP2,2015-04-25 19:28:00,
2015-04-25 15:33:00,71.9,65.5,29.59,South,175,2.4,6.0,80,0.00,,,0.13,WUHU216DAVISVP2,2015-04-25 19:33:00,
2015-04-25 15:38:00,72.1,66.7,29.59,South,171,0.0,6.0,83,0.00,,,0.13,WUHU216DAVISVP2,2015-04-25 19:38:00,
2015-04-25 15:43:00,72.7,66.6,29.58,West,263,1.2,5.0,81,0.00,,,0.13,WUHU216DAVISVP2,2015-04-25 19:43:00,
2015-04-25 15:48:00,73.5,66.9,29.58,SSW,211,7.2,8.4,80,0.00,,,0.13,WUHU216DAVISVP2,2015-04-25 19:48:00,
2015-04-25 15:53:00,74.2,67.3,29.58,SW,224,3.6,9.6,79,0.00,,,0.13,WUHU216DAVISVP2,2015-04-25 19:53:00,
2015-04-25 15:58:00,74.6,67.8,29.57,SSW,200,6.0,13.2,79,0.00,,,0.13,WUHU216DAVISVP2,2015-04-25 19:58:00,
2015-04-25 16:03:00,74.9,68.1,29.57,SSW,204,8.4,13.2,79,0.00,,,0.13,WUHU216DAVISVP2,2015-04-25 20:03:00,
2015-04-25 16:08:00,75.1,67.9,29.57,SW,235,6.0,12.0,78,0.00,,,0.13,WUHU216DAVISVP2,2015-04-25 20:08:00,
2015-04-25 16:13:00,75.2,67.6,29.56,SSW,193,4.8,12.0,77,0.00,,,0.13,WUHU216DAVISVP2,2015-04-25 20:13:00,
2015-04-25 16:18:00,75.3,67.0,29.56,SW,227,7.2,13.2,75,0.00,,,0.13,WUHU216DAVISVP2,2015-04-25 20:18:00,
2015-04-25 16:23:00,75.4,67.1,29.56,SW,220,4.8,16.8,75,0.00,,,0.13,WUHU216DAVISVP2,2015-04-25 20:23:00,